Location: Unspecified
(0.0000°N, 0.0000°E)
Time: 02:42:49
(UTC+00:00)

NUDT-PHONESAT - Pass Details

Date: 13 December 2017
Orbit: 494 x 513 km, 97.4° (Epoch: 19 January)

Event Time Altitude Azimuth Distance (km) Brightness Sun altitude
Rises 18:27:10 0° 188° (S) 2,577 ? -7.5°
Reaches altitude 10° 18:29:28 10° 200° (SSW) 1,694 ? -8.0°
Maximum altitude 18:32:34 26° 259° (W) 997 ? -8.8°
Drops below altitude 10° 18:35:39 10° 317° (NW) 1,694 ? -9.5°
Sets 18:37:57 0° 330° (NNW) 2,577 ? -10.0°
